{"data":{"norad_id":64756,"intl_designator":"2025-147B","name":"STARLINK-34371","alt_names":[],"object_type":"PAYLOAD","status":"ACTIVE","operator":null,"country":"US","launch_date":"2025-07-08","launch_site_code":"AFETR","launch_vehicle":null,"mission":null,"orbit_class":"UNKNOWN","rcs_meters":null,"size_class":null,"mass_kg":null,"dimensions":null,"purposes":["comms"],"wikipedia_slug":null,"has_3d_model":false,"image_url":null,"decayed_at":null,"tle_current":{"epoch":"2026-05-24T23:30:35.476128Z","epoch_age_seconds":67006,"freshness":"FRESH","line1":"1 64756U 25147B   26144.97957727  .00015087  00000+0  49664-3 0  9999","line2":"2 64756  53.1569 248.2830 0001089  69.3450 290.7668 15.31719158 50386","mean_motion":15.31719158,"eccentricity":0.0001089,"inclination_deg":53.1569,"raan_deg":248.283,"arg_perigee_deg":69.345,"mean_anomaly_deg":290.7668,"bstar":0.00049664,"rev_number":5038,"period_min":94.012012089752,"perigee_km":469.93705033412,"apogee_km":471.42872330547,"semimajor_km":6848.8198868198,"source":"CELESTRAK","updated_at":"2026-05-25T13:38:20.552187Z"}}}